Time,TemperatureF,DewpointF,PressureIn,WindDirection,WindDirectionDegrees,WindSpeedMPH,WindSpeedGustMPH,Humidity,HourlyPrecipIn,Conditions,Clouds,dailyrainin,SolarRadiationWatts/m^2,SoftwareType,DateUTC
2013-04-29 00:05:00,61.2,52.5,29.80,SSE,168,7.0,7.0,73,0.00,,,0.00,0,Wunderground v.1.15,2013-04-29 05:05:00,
2013-04-29 00:11:00,61.1,52.0,29.80,South,177,7.0,9.0,72,0.00,,,0.00,0,Wunderground v.1.15,2013-04-29 05:11:00,
2013-04-29 00:17:00,60.9,51.8,29.80,South,172,7.0,8.0,72,0.00,,,0.00,0,Wunderground v.1.15,2013-04-29 05:17:00,
2013-04-29 00:23:00,61.1,52.0,29.80,South,172,7.0,9.0,72,0.00,,,0.00,0,Wunderground v.1.15,2013-04-29 05:23:00,
2013-04-29 00:29:00,61.1,52.0,29.80,South,172,7.0,8.0,72,0.00,,,0.00,0,Wunderground v.1.15,2013-04-29 05:29:00,
2013-04-29 00:35:00,61.1,52.0,29.80,SSW,197,7.0,8.0,72,0.00,,,0.00,0,Wunderground v.1.15,2013-04-29 05:35:00,
2013-04-29 00:41:00,61.2,51.7,29.79,South,179,7.0,8.0,71,0.00,,,0.00,0,Wunderground v.1.15,2013-04-29 05:41:00,
2013-04-29 00:47:00,61.5,51.6,29.79,South,185,7.0,7.0,70,0.00,,,0.00,0,Wunderground v.1.15,2013-04-29 05:47:00,
2013-04-29 00:53:00,61.8,51.5,29.79,South,185,9.0,10.0,69,0.00,,,0.00,0,Wunderground v.1.15,2013-04-29 05:53:00,
2013-04-29 01:00:00,62.0,51.3,29.79,SSW,197,9.0,9.0,68,0.00,,,0.00,0,Wunderground v.1.15,2013-04-29 06:00:00,
2013-04-29 01:05:00,62.0,51.3,29.79,South,185,9.0,11.0,68,0.00,,,0.00,0,Wunderground v.1.15,2013-04-29 06:05:00,
2013-04-29 01:11:00,62.0,51.3,29.80,South,185,9.0,11.0,68,0.00,,,0.00,0,Wunderground v.1.15,2013-04-29 06:11:00,
2013-04-29 01:17:00,61.8,51.1,29.80,South,184,8.0,9.0,68,0.00,,,0.00,0,Wunderground v.1.15,2013-04-29 06:17:00,
2013-04-29 01:23:00,61.8,51.1,29.80,SSW,202,9.0,10.0,68,0.00,,,0.00,0,Wunderground v.1.15,2013-04-29 06:23:00,
2013-04-29 01:29:00,61.9,51.2,29.80,SSW,199,9.0,12.0,68,0.00,,,0.00,0,Wunderground v.1.15,2013-04-29 06:29:00,
2013-04-29 01:35:00,62.1,51.0,29.80,SSW,197,9.0,9.0,67,0.00,,,0.00,0,Wunderground v.1.15,2013-04-29 06:35:00,
2013-04-29 01:41:00,62.0,51.3,29.80,SSW,195,9.0,10.0,68,0.00,,,0.00,0,Wunderground v.1.15,2013-04-29 06:41:00,
2013-04-29 01:47:00,61.7,51.0,29.79,SSW,199,9.0,9.0,68,0.00,,,0.00,0,Wunderground v.1.15,2013-04-29 06:47:00,
2013-04-29 01:53:00,61.4,51.1,29.79,South,191,9.0,11.0,69,0.00,,,0.00,0,Wunderground v.1.15,2013-04-29 06:53:00,
2013-04-29 01:59:00,61.3,51.4,29.79,SW,214,9.0,18.0,70,0.00,,,0.00,0,Wunderground v.1.15,2013-04-29 06:59:00,
2013-04-29 02:05:00,61.0,51.1,29.79,South,191,9.0,9.0,70,0.00,,,0.00,0,Wunderground v.1.15,2013-04-29 07:05:00,
2013-04-29 02:11:00,60.8,51.3,29.79,SSW,197,9.0,18.0,71,0.00,,,0.00,0,Wunderground v.1.15,2013-04-29 07:11:00,
2013-04-29 02:17:00,60.4,51.3,29.79,SSW,198,8.0,18.0,72,0.00,,,0.00,0,Wunderground v.1.15,2013-04-29 07:17:00,
2013-04-29 02:23:00,60.2,51.5,29.78,SSW,201,7.0,18.0,73,0.00,,,0.00,0,Wunderground v.1.15,2013-04-29 07:23:00,
2013-04-29 02:29:00,59.9,51.2,29.78,SSW,197,7.0,18.0,73,0.00,,,0.00,0,Wunderground v.1.15,2013-04-29 07:29:00,
2013-04-29 02:35:00,59.6,51.3,29.78,South,181,7.0,18.0,74,0.00,,,0.00,0,Wunderground v.1.15,2013-04-29 07:35:00,
2013-04-29 02:41:00,59.2,51.3,29.78,South,183,7.0,18.0,75,0.00,,,0.00,0,Wunderground v.1.15,2013-04-29 07:41:00,
2013-04-29 02:47:00,58.9,51.3,29.78,South,185,6.0,18.0,76,0.00,,,0.00,0,Wunderground v.1.15,2013-04-29 07:47:00,
2013-04-29 02:53:00,58.4,51.2,29.78,South,182,6.0,18.0,77,0.00,,,0.00,0,Wunderground v.1.15,2013-04-29 07:53:00,
2013-04-29 02:59:00,57.7,50.9,29.78,South,176,5.0,18.0,78,0.00,,,0.00,0,Wunderground v.1.15,2013-04-29 07:59:00,
2013-04-29 03:05:00,57.3,50.8,29.78,South,179,5.0,5.0,79,0.00,,,0.00,0,Wunderground v.1.15,2013-04-29 08:05:00,
2013-04-29 03:11:00,57.1,51.0,29.78,South,175,5.0,18.0,80,0.00,,,0.00,0,Wunderground v.1.15,2013-04-29 08:11:00,
2013-04-29 03:17:00,57.1,51.0,29.78,South,184,5.0,18.0,80,0.00,,,0.00,0,Wunderground v.1.15,2013-04-29 08:17:00,
2013-04-29 03:23:00,56.9,51.1,29.78,South,191,5.0,18.0,81,0.00,,,0.00,0,Wunderground v.1.15,2013-04-29 08:23:00,
2013-04-29 03:29:00,57.0,51.6,29.78,South,185,5.0,18.0,82,0.00,,,0.00,0,Wunderground v.1.15,2013-04-29 08:29:00,
2013-04-29 03:35:00,57.0,51.6,29.78,South,189,5.0,5.0,82,0.00,,,0.00,0,Wunderground v.1.15,2013-04-29 08:35:00,
2013-04-29 03:41:00,57.0,51.6,29.78,South,189,4.0,18.0,82,0.00,,,0.00,0,Wunderground v.1.15,2013-04-29 08:41:00,
2013-04-29 03:47:00,57.0,51.9,29.78,South,187,5.0,18.0,83,0.00,,,0.00,0,Wunderground v.1.15,2013-04-29 08:47:00,
2013-04-29 03:53:00,57.1,52.0,29.79,South,186,5.0,18.0,83,0.00,,,0.00,0,Wunderground v.1.15,2013-04-29 08:53:00,
2013-04-29 03:59:00,57.1,52.0,29.78,South,187,4.0,18.0,83,0.00,,,0.00,0,Wunderground v.1.15,2013-04-29 08:59:00,
2013-04-29 04:05:00,57.2,52.4,29.78,South,183,4.0,18.0,84,0.00,,,0.00,0,Wunderground v.1.15,2013-04-29 09:05:00,
2013-04-29 04:11:00,57.1,52.3,29.79,South,177,4.0,18.0,84,0.00,,,0.00,0,Wunderground v.1.15,2013-04-29 09:11:00,
2013-04-29 04:17:00,57.1,52.3,29.78,South,177,4.0,18.0,84,0.00,,,0.00,0,Wunderground v.1.15,2013-04-29 09:17:00,
2013-04-29 04:23:00,57.1,52.6,29.79,South,177,4.0,18.0,85,0.00,,,0.00,0,Wunderground v.1.15,2013-04-29 09:23:00,
2013-04-29 04:29:00,57.0,52.5,29.79,South,179,4.0,18.0,85,0.00,,,0.00,0,Wunderground v.1.15,2013-04-29 09:29:00,
2013-04-29 04:35:00,56.8,52.3,29.79,South,179,4.0,18.0,85,0.00,,,0.00,0,Wunderground v.1.15,2013-04-29 09:35:00,
2013-04-29 04:41:00,56.6,52.1,29.79,South,179,4.0,18.0,85,0.00,,,0.00,0,Wunderground v.1.15,2013-04-29 09:41:00,
2013-04-29 04:47:00,56.4,51.9,29.79,South,179,3.0,18.0,85,0.00,,,0.00,0,Wunderground v.1.15,2013-04-29 09:47:00,
2013-04-29 04:53:00,56.1,51.7,29.79,South,179,3.0,18.0,85,0.00,,,0.00,0,Wunderground v.1.15,2013-04-29 09:53:00,
2013-04-29 04:59:00,55.9,51.8,29.79,South,179,4.0,18.0,86,0.00,,,0.00,0,Wunderground v.1.15,2013-04-29 09:59:00,
2013-04-29 05:05:00,55.7,51.6,29.79,South,179,4.0,4.0,86,0.00,,,0.00,0,Wunderground v.1.15,2013-04-29 10:05:00,
2013-04-29 05:11:00,55.5,51.4,29.79,South,179,2.0,18.0,86,0.00,,,0.00,0,Wunderground v.1.15,2013-04-29 10:11:00,
2013-04-29 05:17:00,55.5,51.7,29.79,South,179,2.0,18.0,87,0.00,,,0.00,0,Wunderground v.1.15,2013-04-29 10:17:00,
2013-04-29 05:23:00,55.7,51.9,29.79,South,179,2.0,18.0,87,0.00,,,0.00,0,Wunderground v.1.15,2013-04-29 10:23:00,
2013-04-29 05:29:00,55.5,51.7,29.79,South,179,4.0,18.0,87,0.00,,,0.00,0,Wunderground v.1.15,2013-04-29 10:29:00,
2013-04-29 05:35:00,55.4,51.6,29.78,South,179,4.0,4.0,87,0.00,,,0.00,0,Wunderground v.1.15,2013-04-29 10:35:00,
2013-04-29 05:41:00,55.0,51.2,29.78,South,179,3.0,18.0,87,0.00,,,0.00,0,Wunderground v.1.15,2013-04-29 10:41:00,
2013-04-29 05:47:00,54.6,50.8,29.78,South,179,2.0,18.0,87,0.00,,,0.00,0,Wunderground v.1.15,2013-04-29 10:47:00,
2013-04-29 05:53:00,54.9,51.4,29.78,South,176,3.0,18.0,88,0.00,,,0.00,0,Wunderground v.1.15,2013-04-29 10:53:00,
2013-04-29 05:59:00,55.0,51.5,29.78,SSE,167,5.0,18.0,88,0.00,,,0.00,0,Wunderground v.1.15,2013-04-29 10:59:00,
2013-04-29 06:05:00,54.7,50.9,29.79,SSE,166,5.0,18.0,87,0.00,,,0.00,0,Wunderground v.1.15,2013-04-29 11:05:00,
2013-04-29 06:11:00,54.5,51.0,29.78,SSE,166,5.0,18.0,88,0.00,,,0.00,0,Wunderground v.1.15,2013-04-29 11:11:00,
2013-04-29 06:17:00,54.6,51.1,29.79,SSE,166,4.0,18.0,88,0.00,,,0.00,0,Wunderground v.1.15,2013-04-29 11:17:00,
2013-04-29 06:23:00,54.8,51.3,29.78,SSE,162,4.0,18.0,88,0.00,,,0.00,0,Wunderground v.1.15,2013-04-29 11:23:00,
2013-04-29 06:29:00,54.9,51.4,29.78,SSE,162,4.0,18.0,88,0.00,,,0.00,0,Wunderground v.1.15,2013-04-29 11:29:00,
2013-04-29 06:35:00,55.0,51.5,29.79,SSE,162,5.0,5.0,88,0.00,,,0.00,0,Wunderground v.1.15,2013-04-29 11:35:00,
2013-04-29 06:41:00,54.9,51.4,29.79,SSE,162,5.0,18.0,88,0.00,,,0.00,7,Wunderground v.1.15,2013-04-29 11:41:00,
2013-04-29 06:47:00,54.6,51.1,29.79,SSE,161,5.0,18.0,88,0.00,,,0.00,11,Wunderground v.1.15,2013-04-29 11:47:00,
2013-04-29 06:53:00,54.6,51.1,29.79,SSE,161,5.0,18.0,88,0.00,,,0.00,16,Wunderground v.1.15,2013-04-29 11:53:00,
2013-04-29 06:59:00,54.8,51.6,29.79,SSE,161,5.0,18.0,89,0.00,,,0.00,21,Wunderground v.1.15,2013-04-29 11:59:00,
2013-04-29 07:05:00,55.2,52.0,29.79,SSE,159,5.0,18.0,89,0.00,,,0.00,25,Wunderground v.1.15,2013-04-29 12:05:00,
2013-04-29 07:11:00,55.9,52.7,29.79,SSE,161,6.0,18.0,89,0.00,,,0.00,32,Wunderground v.1.15,2013-04-29 12:11:00,
2013-04-29 07:17:00,56.3,53.1,29.80,SSE,161,6.0,18.0,89,0.00,,,0.00,46,Wunderground v.1.15,2013-04-29 12:17:00,
2013-04-29 07:23:00,56.7,53.5,29.79,SSE,164,6.0,18.0,89,0.00,,,0.00,60,Wunderground v.1.15,2013-04-29 12:23:00,
2013-04-29 07:29:00,57.2,54.0,29.79,SSE,164,6.0,18.0,89,0.00,,,0.00,76,Wunderground v.1.15,2013-04-29 12:29:00,
2013-04-29 07:35:00,57.8,54.9,29.80,SSE,165,6.0,18.0,90,0.00,,,0.00,91,Wunderground v.1.15,2013-04-29 12:35:00,
2013-04-29 07:41:00,58.2,55.3,29.79,SSE,163,6.0,18.0,90,0.00,,,0.00,105,Wunderground v.1.15,2013-04-29 12:41:00,
2013-04-29 07:47:00,58.8,55.6,29.79,SSE,163,6.0,18.0,89,0.00,,,0.00,128,Wunderground v.1.15,2013-04-29 12:47:00,
2013-04-29 07:53:00,59.4,56.2,29.79,SSE,165,6.0,18.0,89,0.00,,,0.00,146,Wunderground v.1.15,2013-04-29 12:53:00,
2013-04-29 07:59:00,59.9,56.6,29.79,SSE,166,7.0,18.0,89,0.00,,,0.00,167,Wunderground v.1.15,2013-04-29 12:59:00,
2013-04-29 08:05:00,60.4,57.1,29.79,SSE,165,7.0,7.0,89,0.00,,,0.00,186,Wunderground v.1.15,2013-04-29 13:05:00,
2013-04-29 08:11:00,61.1,57.8,29.79,SSE,164,7.0,18.0,89,0.00,,,0.00,206,Wunderground v.1.15,2013-04-29 13:11:00,
2013-04-29 08:17:00,62.0,58.7,29.79,South,172,7.0,18.0,89,0.00,,,0.00,223,Wunderground v.1.15,2013-04-29 13:17:00,
2013-04-29 08:23:00,63.0,59.4,29.79,South,178,6.0,18.0,88,0.00,,,0.00,244,Wunderground v.1.15,2013-04-29 13:23:00,
2013-04-29 08:29:00,63.8,59.9,29.79,South,186,7.0,18.0,87,0.00,,,0.00,262,Wunderground v.1.15,2013-04-29 13:29:00,
2013-04-29 08:35:00,64.7,60.4,29.79,SSW,192,7.0,18.0,86,0.00,,,0.00,285,Wunderground v.1.15,2013-04-29 13:35:00,
2013-04-29 08:41:00,65.2,60.2,29.79,SSW,202,6.0,18.0,84,0.00,,,0.00,313,Wunderground v.1.15,2013-04-29 13:41:00,
2013-04-29 08:47:00,65.8,60.5,29.79,SSW,199,7.0,8.0,83,0.00,,,0.00,338,Wunderground v.1.15,2013-04-29 13:47:00,
2013-04-29 08:53:00,66.5,60.5,29.79,SSW,210,7.0,18.0,81,0.00,,,0.00,360,Wunderground v.1.15,2013-04-29 13:53:00,
2013-04-29 08:59:00,67.0,60.6,29.79,SSW,206,8.0,18.0,80,0.00,,,0.00,381,Wunderground v.1.15,2013-04-29 13:59:00,
2013-04-29 09:07:00,67.7,61.0,29.79,South,179,7.0,18.0,79,0.00,,,0.00,408,Wunderground v.1.15,2013-04-29 14:07:00,
2013-04-29 09:13:00,68.3,61.9,29.80,SSW,208,7.0,18.0,80,0.00,,,0.00,424,Wunderground v.1.15,2013-04-29 14:13:00,
2013-04-29 09:19:00,68.6,61.5,29.80,SSW,204,6.0,18.0,78,0.00,,,0.00,446,Wunderground v.1.15,2013-04-29 14:19:00,
2013-04-29 09:25:00,68.9,61.0,29.80,SSW,206,6.0,18.0,76,0.00,,,0.00,464,Wunderground v.1.15,2013-04-29 14:25:00,
2013-04-29 09:31:00,69.3,61.0,29.80,SW,232,7.0,18.0,75,0.00,,,0.00,483,Wunderground v.1.15,2013-04-29 14:31:00,
2013-04-29 09:37:00,69.9,60.8,29.80,SSW,203,6.0,18.0,73,0.00,,,0.00,503,Wunderground v.1.15,2013-04-29 14:37:00,
2013-04-29 09:43:00,69.9,61.2,29.80,SSW,194,7.0,18.0,74,0.00,,,0.00,522,Wunderground v.1.15,2013-04-29 14:43:00,
2013-04-29 09:49:00,70.4,61.3,29.80,SSW,210,7.0,18.0,73,0.00,,,0.00,541,Wunderground v.1.15,2013-04-29 14:49:00,
2013-04-29 09:55:00,70.9,61.4,29.80,SSW,207,7.0,18.0,72,0.00,,,0.00,561,Wunderground v.1.15,2013-04-29 14:55:00,
2013-04-29 10:01:00,71.3,61.8,29.80,SW,216,5.0,18.0,72,0.00,,,0.00,575,Wunderground v.1.15,2013-04-29 15:01:00,
2013-04-29 10:07:00,71.7,61.4,29.80,SW,224,4.0,18.0,70,0.00,,,0.00,596,Wunderground v.1.15,2013-04-29 15:07:00,
2013-04-29 10:13:00,72.1,61.8,29.80,SW,214,5.0,18.0,70,0.00,,,0.00,610,Wunderground v.1.15,2013-04-29 15:13:00,
2013-04-29 10:19:00,72.4,62.1,29.79,SW,215,5.0,18.0,70,0.00,,,0.00,629,Wunderground v.1.15,2013-04-29 15:19:00,
2013-04-29 10:25:00,72.7,61.5,29.79,SW,226,5.0,5.0,68,0.00,,,0.00,649,Wunderground v.1.15,2013-04-29 15:25:00,
2013-04-29 10:31:00,72.9,61.3,29.79,SSW,204,7.0,18.0,67,0.00,,,0.00,663,Wunderground v.1.15,2013-04-29 15:31:00,
2013-04-29 10:37:00,73.4,61.3,29.79,WSW,237,6.0,18.0,66,0.00,,,0.00,679,Wunderground v.1.15,2013-04-29 15:37:00,
2013-04-29 10:43:00,73.8,62.6,29.79,SW,216,4.0,18.0,68,0.00,,,0.00,691,Wunderground v.1.15,2013-04-29 15:43:00,
2013-04-29 10:49:00,74.2,63.0,29.79,SSW,198,5.0,18.0,68,0.00,,,0.00,708,Wunderground v.1.15,2013-04-29 15:49:00,
2013-04-29 10:55:00,75.1,63.0,29.79,SSW,204,5.0,5.0,66,0.00,,,0.00,722,Wunderground v.1.15,2013-04-29 15:55:00,
2013-04-29 11:01:00,74.9,62.8,29.79,SSW,202,4.0,18.0,66,0.00,,,0.00,738,Wunderground v.1.15,2013-04-29 16:01:00,
2013-04-29 11:07:00,75.8,63.6,29.78,SSW,202,5.0,18.0,66,0.00,,,0.00,754,Wunderground v.1.15,2013-04-29 16:07:00,
2013-04-29 11:13:00,76.2,61.8,29.79,SW,218,6.0,18.0,61,0.00,,,0.00,766,Wunderground v.1.15,2013-04-29 16:13:00,
2013-04-29 11:21:00,76.0,62.9,29.79,SSW,206,5.0,18.0,64,0.00,,,0.00,782,Wunderground v.1.15,2013-04-29 16:21:00,
2013-04-29 11:27:00,76.4,62.4,29.78,SSW,200,6.0,6.0,62,0.00,,,0.00,795,Wunderground v.1.15,2013-04-29 16:27:00,
2013-04-29 11:33:00,76.9,62.0,29.79,SSW,199,6.0,18.0,60,0.00,,,0.00,810,Wunderground v.1.15,2013-04-29 16:33:00,
2013-04-29 11:39:00,77.3,64.2,29.78,SSW,211,5.0,18.0,64,0.00,,,0.00,819,Wunderground v.1.15,2013-04-29 16:39:00,
2013-04-29 11:45:00,77.8,63.3,29.78,SSW,192,5.0,18.0,61,0.00,,,0.00,831,Wunderground v.1.15,2013-04-29 16:45:00,
2013-04-29 11:51:00,78.0,62.0,29.78,SSW,207,6.0,18.0,58,0.00,,,0.00,840,Wunderground v.1.15,2013-04-29 16:51:00,
2013-04-29 11:57:00,78.4,62.9,29.78,South,179,6.0,18.0,59,0.00,,,0.00,853,Wunderground v.1.15,2013-04-29 16:57:00,
2013-04-29 12:03:00,78.4,63.8,29.77,SSW,204,6.0,18.0,61,0.00,,,0.00,861,Wunderground v.1.15,2013-04-29 17:03:00,
2013-04-29 12:09:00,78.6,62.6,29.77,SSW,210,6.0,18.0,58,0.00,,,0.00,870,Wunderground v.1.15,2013-04-29 17:09:00,
2013-04-29 12:15:00,78.6,61.6,29.78,SSW,193,5.0,18.0,56,0.00,,,0.00,875,Wunderground v.1.15,2013-04-29 17:15:00,
2013-04-29 12:21:00,78.8,61.3,29.77,SSW,199,5.0,18.0,55,0.00,,,0.00,884,Wunderground v.1.15,2013-04-29 17:21:00,
2013-04-29 12:27:00,79.1,62.1,29.77,SSW,199,5.0,7.0,56,0.00,,,0.00,893,Wunderground v.1.15,2013-04-29 17:27:00,
2013-04-29 12:33:00,79.4,63.8,29.77,SW,220,5.0,18.0,59,0.00,,,0.00,898,Wunderground v.1.15,2013-04-29 17:33:00,
2013-04-29 12:39:00,80.3,63.7,29.77,SSW,207,5.0,18.0,57,0.00,,,0.00,905,Wunderground v.1.15,2013-04-29 17:39:00,
2013-04-29 12:45:00,80.1,63.0,29.77,SSW,200,5.0,18.0,56,0.00,,,0.00,909,Wunderground v.1.15,2013-04-29 17:45:00,
2013-04-29 12:51:00,80.3,62.1,29.76,SW,222,6.0,18.0,54,0.00,,,0.00,914,Wunderground v.1.15,2013-04-29 17:51:00,
2013-04-29 12:57:00,80.5,61.8,29.76,South,189,7.0,18.0,53,0.00,,,0.00,916,Wunderground v.1.15,2013-04-29 17:57:00,
2013-04-29 13:03:00,80.5,62.8,29.76,South,191,6.0,18.0,55,0.00,,,0.00,921,Wunderground v.1.15,2013-04-29 18:03:00,
2013-04-29 13:09:00,80.5,63.4,29.76,SSW,208,5.0,18.0,56,0.00,,,0.00,925,Wunderground v.1.15,2013-04-29 18:09:00,
2013-04-29 13:15:00,81.1,64.9,29.75,SSE,163,5.0,18.0,58,0.00,,,0.00,928,Wunderground v.1.15,2013-04-29 18:15:00,
2013-04-29 13:21:00,81.1,62.9,29.75,SSW,205,7.0,18.0,54,0.00,,,0.00,932,Wunderground v.1.15,2013-04-29 18:21:00,
2013-04-29 13:27:00,81.4,63.2,29.75,South,176,6.0,18.0,54,0.00,,,0.00,933,Wunderground v.1.15,2013-04-29 18:27:00,
2013-04-29 13:33:00,81.2,63.5,29.75,South,170,6.0,18.0,55,0.00,,,0.00,932,Wunderground v.1.15,2013-04-29 18:33:00,
2013-04-29 13:39:00,81.4,65.7,29.74,South,170,7.0,18.0,59,0.00,,,0.00,932,Wunderground v.1.15,2013-04-29 18:39:00,
2013-04-29 13:45:00,81.7,64.5,29.74,SSW,196,6.0,6.0,56,0.00,,,0.00,933,Wunderground v.1.15,2013-04-29 18:45:00,
2013-04-29 13:51:00,81.6,64.4,29.73,SSW,193,7.0,18.0,56,0.00,,,0.00,932,Wunderground v.1.15,2013-04-29 18:51:00,
2013-04-29 13:57:00,81.6,64.4,29.73,SSE,158,8.0,9.0,56,0.00,,,0.00,932,Wunderground v.1.15,2013-04-29 18:57:00,
2013-04-29 14:03:00,81.3,63.6,29.73,SSE,158,8.0,18.0,55,0.00,,,0.00,926,Wunderground v.1.15,2013-04-29 19:03:00,
2013-04-29 14:09:00,81.4,64.2,29.72,South,179,9.0,18.0,56,0.00,,,0.00,926,Wunderground v.1.15,2013-04-29 19:09:00,
2013-04-29 14:15:00,81.6,63.3,29.72,South,173,8.0,8.0,54,0.00,,,0.00,923,Wunderground v.1.15,2013-04-29 19:15:00,
2013-04-29 14:21:00,81.7,63.4,29.72,South,189,8.0,18.0,54,0.00,,,0.00,918,Wunderground v.1.15,2013-04-29 19:21:00,
2013-04-29 14:27:00,81.9,64.1,29.72,SSW,196,9.0,10.0,55,0.00,,,0.00,911,Wunderground v.1.15,2013-04-29 19:27:00,
2013-04-29 14:33:00,81.9,62.5,29.72,SSW,202,9.0,18.0,52,0.00,,,0.00,907,Wunderground v.1.15,2013-04-29 19:33:00,
2013-04-29 14:39:00,82.6,64.8,29.71,South,185,9.0,18.0,55,0.00,,,0.00,900,Wunderground v.1.15,2013-04-29 19:39:00,
2013-04-29 14:45:00,82.6,64.8,29.72,South,172,8.0,18.0,55,0.00,,,0.00,891,Wunderground v.1.15,2013-04-29 19:45:00,
2013-04-29 14:51:00,82.7,64.9,29.72,SSW,213,8.0,18.0,55,0.00,,,0.00,882,Wunderground v.1.15,2013-04-29 19:51:00,
2013-04-29 14:57:00,82.8,62.8,29.71,South,189,10.0,18.0,51,0.00,,,0.00,875,Wunderground v.1.15,2013-04-29 19:57:00,
2013-04-29 15:03:00,83.0,64.6,29.71,South,185,9.0,18.0,54,0.00,,,0.00,867,Wunderground v.1.15,2013-04-29 20:03:00,
2013-04-29 15:09:00,82.9,61.8,29.71,South,184,9.0,18.0,49,0.00,,,0.00,858,Wunderground v.1.15,2013-04-29 20:09:00,
2013-04-29 15:15:00,82.8,61.7,29.70,SSW,193,10.0,10.0,49,0.00,,,0.00,849,Wunderground v.1.15,2013-04-29 20:15:00,
2013-04-29 15:21:00,83.0,61.9,29.70,South,177,10.0,18.0,49,0.00,,,0.00,840,Wunderground v.1.15,2013-04-29 20:21:00,
2013-04-29 15:27:00,83.3,63.8,29.70,South,176,10.0,18.0,52,0.00,,,0.00,828,Wunderground v.1.15,2013-04-29 20:27:00,
2013-04-29 15:33:00,83.5,64.6,29.70,SSW,193,9.0,18.0,53,0.00,,,0.00,777,Wunderground v.1.15,2013-04-29 20:33:00,
2013-04-29 15:39:00,84.0,62.8,29.70,SSW,201,10.0,18.0,49,0.00,,,0.00,805,Wunderground v.1.15,2013-04-29 20:39:00,
2013-04-29 15:45:00,84.1,62.3,29.69,South,178,11.0,18.0,48,0.00,,,0.00,795,Wunderground v.1.15,2013-04-29 20:45:00,
2013-04-29 15:51:00,84.4,64.9,29.68,South,188,11.0,18.0,52,0.00,,,0.00,786,Wunderground v.1.15,2013-04-29 20:51:00,
2013-04-29 15:57:00,84.6,65.0,29.68,SSE,165,10.0,18.0,52,0.00,,,0.00,773,Wunderground v.1.15,2013-04-29 20:57:00,
2013-04-29 16:03:00,84.3,63.1,29.68,SSE,156,10.0,18.0,49,0.00,,,0.00,758,Wunderground v.1.15,2013-04-29 21:03:00,
2013-04-29 16:09:00,84.3,61.3,29.67,SSW,193,11.0,15.0,46,0.00,,,0.00,738,Wunderground v.1.15,2013-04-29 21:09:00,
2013-04-29 16:15:00,84.2,60.6,29.67,SSE,167,12.0,12.0,45,0.00,,,0.00,673,Wunderground v.1.15,2013-04-29 21:15:00,
2013-04-29 16:21:00,84.1,62.9,29.67,South,179,12.0,18.0,49,0.00,,,0.00,668,Wunderground v.1.15,2013-04-29 21:21:00,
2013-04-29 16:27:00,84.1,62.3,29.67,South,185,12.0,18.0,48,0.00,,,0.00,635,Wunderground v.1.15,2013-04-29 21:27:00,
2013-04-29 16:33:00,84.2,63.0,29.67,SSE,165,13.0,18.0,49,0.00,,,0.00,687,Wunderground v.1.15,2013-04-29 21:33:00,
2013-04-29 16:39:00,84.2,62.4,29.67,South,176,13.0,18.0,48,0.00,,,0.00,701,Wunderground v.1.15,2013-04-29 21:39:00,
2013-04-29 16:45:00,84.3,63.1,29.67,South,177,11.0,11.0,49,0.00,,,0.00,689,Wunderground v.1.15,2013-04-29 21:45:00,
2013-04-29 16:51:00,84.4,61.4,29.67,SSE,168,11.0,18.0,46,0.00,,,0.00,642,Wunderground v.1.15,2013-04-29 21:51:00,
2013-04-29 16:57:00,84.0,61.0,29.67,SSE,166,11.0,18.0,46,0.00,,,0.00,392,Wunderground v.1.15,2013-04-29 21:57:00,
2013-04-29 17:03:00,82.9,62.4,29.67,South,174,12.0,18.0,50,0.00,,,0.00,353,Wunderground v.1.15,2013-04-29 22:03:00,
2013-04-29 17:09:00,82.5,61.4,29.66,South,181,10.0,18.0,49,0.00,,,0.00,494,Wunderground v.1.15,2013-04-29 22:09:00,
2013-04-29 17:15:00,82.7,61.6,29.66,South,173,10.0,18.0,49,0.00,,,0.00,485,Wunderground v.1.15,2013-04-29 22:15:00,
2013-04-29 17:21:00,82.9,62.4,29.66,South,169,11.0,18.0,50,0.00,,,0.00,638,Wunderground v.1.15,2013-04-29 22:21:00,
2013-04-29 17:27:00,83.2,60.9,29.66,South,184,11.0,18.0,47,0.00,,,0.00,522,Wunderground v.1.15,2013-04-29 22:27:00,
2013-04-29 17:33:00,83.1,61.4,29.66,SSW,202,12.0,18.0,48,0.00,,,0.00,540,Wunderground v.1.15,2013-04-29 22:33:00,
2013-04-29 17:39:00,82.9,60.0,29.65,SSE,167,13.0,18.0,46,0.00,,,0.00,501,Wunderground v.1.15,2013-04-29 22:39:00,
2013-04-29 17:45:00,82.7,59.8,29.65,SSW,194,12.0,18.0,46,0.00,,,0.00,469,Wunderground v.1.15,2013-04-29 22:45:00,
2013-04-29 17:51:00,82.6,59.1,29.66,South,191,13.0,18.0,45,0.00,,,0.00,445,Wunderground v.1.15,2013-04-29 22:51:00,
2013-04-29 17:57:00,82.5,59.6,29.66,SSW,196,13.0,18.0,46,0.00,,,0.00,425,Wunderground v.1.15,2013-04-29 22:57:00,
2013-04-29 18:03:00,82.3,60.1,29.66,South,175,13.0,18.0,47,0.00,,,0.00,403,Wunderground v.1.15,2013-04-29 23:03:00,
2013-04-29 18:09:00,82.0,61.5,29.65,SSE,162,14.0,18.0,50,0.00,,,0.00,380,Wunderground v.1.15,2013-04-29 23:09:00,
2013-04-29 18:15:00,81.6,61.7,29.65,SSE,160,12.0,19.0,51,0.00,,,0.00,359,Wunderground v.1.15,2013-04-29 23:15:00,
2013-04-29 18:21:00,81.4,62.1,29.65,SSW,195,11.0,19.0,52,0.00,,,0.00,339,Wunderground v.1.15,2013-04-29 23:21:00,
2013-04-29 18:27:00,81.1,61.3,29.65,SSE,164,11.0,18.0,51,0.00,,,0.00,320,Wunderground v.1.15,2013-04-29 23:27:00,
2013-04-29 18:33:00,80.7,60.9,29.65,South,171,12.0,19.0,51,0.00,,,0.00,299,Wunderground v.1.15,2013-04-29 23:33:00,
2013-04-29 18:39:00,80.5,60.7,29.65,South,187,12.0,18.0,51,0.00,,,0.00,278,Wunderground v.1.15,2013-04-29 23:39:00,
2013-04-29 18:45:00,80.1,60.3,29.65,SSE,163,12.0,12.0,51,0.00,,,0.00,257,Wunderground v.1.15,2013-04-29 23:45:00,
2013-04-29 18:51:00,79.8,59.5,29.65,South,171,12.0,19.0,50,0.00,,,0.00,239,Wunderground v.1.15,2013-04-29 23:51:00,
2013-04-29 18:57:00,79.4,60.2,29.65,South,181,12.0,16.0,52,0.00,,,0.00,216,Wunderground v.1.15,2013-04-29 23:57:00,
2013-04-29 19:03:00,79.1,59.4,29.64,SSW,205,12.0,21.0,51,0.00,,,0.00,193,Wunderground v.1.15,2013-04-30 00:03:00,
2013-04-29 19:09:00,78.9,58.1,29.65,South,182,13.0,18.0,49,0.00,,,0.00,167,Wunderground v.1.15,2013-04-30 00:09:00,
2013-04-29 19:15:00,78.6,58.4,29.64,SSE,164,12.0,12.0,50,0.00,,,0.00,141,Wunderground v.1.15,2013-04-30 00:15:00,
2013-04-29 19:21:00,78.2,58.6,29.64,South,180,11.0,18.0,51,0.00,,,0.00,116,Wunderground v.1.15,2013-04-30 00:21:00,
2013-04-29 19:27:00,77.9,58.3,29.64,South,179,12.0,15.0,51,0.00,,,0.00,86,Wunderground v.1.15,2013-04-30 00:27:00,
2013-04-29 19:33:00,77.7,58.1,29.64,SSE,166,13.0,18.0,51,0.00,,,0.00,46,Wunderground v.1.15,2013-04-30 00:33:00,
2013-04-29 19:39:00,77.5,57.4,29.64,South,187,13.0,18.0,50,0.00,,,0.00,35,Wunderground v.1.15,2013-04-30 00:39:00,
2013-04-29 19:45:00,77.2,57.7,29.64,SSE,160,12.0,12.0,51,0.00,,,0.00,30,Wunderground v.1.15,2013-04-30 00:45:00,
2013-04-29 19:51:00,76.8,57.3,29.64,SSW,203,12.0,18.0,51,0.00,,,0.00,25,Wunderground v.1.15,2013-04-30 00:51:00,
2013-04-29 19:57:00,76.5,56.5,29.64,South,175,11.0,18.0,50,0.00,,,0.00,21,Wunderground v.1.15,2013-04-30 00:57:00,
2013-04-29 20:03:00,76.2,56.7,29.64,South,175,11.0,18.0,51,0.00,,,0.00,16,Wunderground v.1.15,2013-04-30 01:03:00,
2013-04-29 20:09:00,75.7,56.8,29.64,South,172,11.0,18.0,52,0.00,,,0.00,11,Wunderground v.1.15,2013-04-30 01:09:00,
2013-04-29 20:15:00,75.5,56.6,29.64,South,181,11.0,18.0,52,0.00,,,0.00,7,Wunderground v.1.15,2013-04-30 01:15:00,
2013-04-29 20:21:00,75.1,56.8,29.64,South,175,12.0,18.0,53,0.00,,,0.00,0,Wunderground v.1.15,2013-04-30 01:21:00,
2013-04-29 20:27:00,75.0,56.2,29.64,SSE,162,12.0,18.0,52,0.00,,,0.00,0,Wunderground v.1.15,2013-04-30 01:27:00,
2013-04-29 20:33:00,75.1,55.2,29.64,SSE,166,12.0,18.0,50,0.00,,,0.00,0,Wunderground v.1.15,2013-04-30 01:33:00,
2013-04-29 20:39:00,75.0,55.6,29.64,South,173,11.0,18.0,51,0.00,,,0.00,0,Wunderground v.1.15,2013-04-30 01:39:00,
2013-04-29 20:45:00,74.8,54.9,29.64,SSE,164,11.0,18.0,50,0.00,,,0.00,0,Wunderground v.1.15,2013-04-30 01:45:00,
2013-04-29 20:51:00,74.6,54.7,29.64,South,191,12.0,18.0,50,0.00,,,0.00,0,Wunderground v.1.15,2013-04-30 01:51:00,
2013-04-29 20:57:00,74.6,54.7,29.64,South,180,11.0,18.0,50,0.00,,,0.00,0,Wunderground v.1.15,2013-04-30 01:57:00,
2013-04-29 21:03:00,74.5,54.6,29.65,SSE,155,11.0,18.0,50,0.00,,,0.00,0,Wunderground v.1.15,2013-04-30 02:03:00,
2013-04-29 21:09:00,74.3,54.5,29.65,South,173,11.0,18.0,50,0.00,,,0.00,0,Wunderground v.1.15,2013-04-30 02:09:00,
2013-04-29 21:15:00,74.0,54.7,29.65,South,173,11.0,11.0,51,0.00,,,0.00,0,Wunderground v.1.15,2013-04-30 02:15:00,
2013-04-29 21:21:00,73.5,54.8,29.66,SSE,160,11.0,18.0,52,0.00,,,0.00,0,Wunderground v.1.15,2013-04-30 02:21:00,
2013-04-29 21:27:00,73.0,54.3,29.65,SSE,151,11.0,13.0,52,0.00,,,0.00,0,Wunderground v.1.15,2013-04-30 02:27:00,
2013-04-29 21:33:00,72.6,54.5,29.66,SSE,160,12.0,18.0,53,0.00,,,0.00,0,Wunderground v.1.15,2013-04-30 02:33:00,
2013-04-29 21:39:00,72.3,54.7,29.65,SSE,168,12.0,18.0,54,0.00,,,0.00,0,Wunderground v.1.15,2013-04-30 02:39:00,
2013-04-29 21:45:00,72.0,54.9,29.66,SSE,162,11.0,18.0,55,0.00,,,0.00,0,Wunderground v.1.15,2013-04-30 02:45:00,
2013-04-29 21:51:00,71.8,54.8,29.65,South,176,11.0,18.0,55,0.00,,,0.00,0,Wunderground v.1.15,2013-04-30 02:51:00,
2013-04-29 21:57:00,71.7,54.7,29.66,South,171,12.0,18.0,55,0.00,,,0.00,0,Wunderground v.1.15,2013-04-30 02:57:00,
2013-04-29 22:03:00,71.6,55.1,29.66,South,172,11.0,18.0,56,0.00,,,0.00,0,Wunderground v.1.15,2013-04-30 03:03:00,
2013-04-29 22:09:00,71.4,54.9,29.66,South,173,11.0,18.0,56,0.00,,,0.00,0,Wunderground v.1.15,2013-04-30 03:09:00,
2013-04-29 22:15:00,71.1,54.6,29.66,SSE,159,12.0,18.0,56,0.00,,,0.00,0,Wunderground v.1.15,2013-04-30 03:15:00,
2013-04-29 22:21:00,71.0,54.5,29.66,SSE,163,13.0,18.0,56,0.00,,,0.00,0,Wunderground v.1.15,2013-04-30 03:21:00,
2013-04-29 22:27:00,71.2,54.2,29.67,South,185,13.0,18.0,55,0.00,,,0.00,0,Wunderground v.1.15,2013-04-30 03:27:00,
2013-04-29 22:33:00,71.5,54.5,29.66,SSE,160,14.0,18.0,55,0.00,,,0.00,0,Wunderground v.1.15,2013-04-30 03:33:00,
2013-04-29 22:39:00,71.6,54.1,29.66,South,177,14.0,18.0,54,0.00,,,0.00,0,Wunderground v.1.15,2013-04-30 03:39:00,
2013-04-29 22:45:00,71.7,54.2,29.66,South,170,15.0,18.0,54,0.00,,,0.00,0,Wunderground v.1.15,2013-04-30 03:45:00,
2013-04-29 22:51:00,71.6,54.1,29.67,SSE,165,15.0,19.0,54,0.00,,,0.00,0,Wunderground v.1.15,2013-04-30 03:51:00,
2013-04-29 22:57:00,71.3,54.3,29.67,SSE,160,13.0,18.0,55,0.00,,,0.00,0,Wunderground v.1.15,2013-04-30 03:57:00,
2013-04-29 23:01:00,71.0,54.0,29.67,South,182,13.0,18.0,55,0.00,,,0.00,0,Wunderground v.1.15,2013-04-30 04:01:00,
2013-04-29 23:03:00,71.0,54.0,29.67,South,172,12.0,18.0,55,0.00,,,0.00,0,Wunderground v.1.15,2013-04-30 04:03:00,
2013-04-29 23:05:00,70.8,53.8,29.67,South,181,13.0,18.0,55,0.00,,,0.00,0,Wunderground v.1.15,2013-04-30 04:05:00,
2013-04-29 23:09:00,70.7,53.7,29.67,SSW,201,13.0,18.0,55,0.00,,,0.00,0,Wunderground v.1.15,2013-04-30 04:09:00,
2013-04-29 23:11:00,70.8,53.8,29.67,SSW,196,13.0,18.0,55,0.00,,,0.00,0,Wunderground v.1.15,2013-04-30 04:11:00,
2013-04-29 23:17:00,70.8,53.8,29.67,South,189,13.0,14.0,55,0.00,,,0.00,0,Wunderground v.1.15,2013-04-30 04:17:00,
2013-04-29 23:23:00,70.8,53.8,29.67,SSE,161,13.0,18.0,55,0.00,,,0.00,0,Wunderground v.1.15,2013-04-30 04:23:00,
2013-04-29 23:29:00,70.7,53.7,29.68,SSE,161,12.0,18.0,55,0.00,,,0.00,0,Wunderground v.1.15,2013-04-30 04:29:00,
2013-04-29 23:35:00,70.5,54.0,29.68,SSE,152,13.0,13.0,56,0.00,,,0.00,0,Wunderground v.1.15,2013-04-30 04:35:00,
2013-04-29 23:41:00,70.4,54.0,29.68,SSE,166,12.0,18.0,56,0.00,,,0.00,0,Wunderground v.1.15,2013-04-30 04:41:00,
2013-04-29 23:47:00,70.0,54.1,29.68,South,172,12.0,18.0,57,0.00,,,0.00,0,Wunderground v.1.15,2013-04-30 04:47:00,
2013-04-29 23:53:00,69.4,54.0,29.68,SSE,148,12.0,18.0,58,0.00,,,0.00,0,Wunderground v.1.15,2013-04-30 04:53:00,
2013-04-29 23:59:00,69.3,53.9,29.68,South,183,12.0,18.0,58,0.00,,,0.00,0,Wunderground v.1.15,2013-04-30 04:59:00,